Home   Weather   São Luis   Past weeks
Flag for Brazil

Past Weather in São Luis, Maranhão, Brazil — Yesterday and Last 2 Weeks

Now
79 °F

Clear.


Feels Like: 82 °F
Forecast: 88 / 77 °F
Wind: 6 mph from Northeast

Location: Sao Luiz Aeroporto

Current Time: Oct 21, 2019 at 12:17:43 am

Latest Report: Oct 20, 2019 at 11:00 pm


Visibility: 10 mi

Pressure: 29.86 "Hg

Humidity: 89%

Dew Point: 75 °F

Location of São LuisLocation

Past Weather in São Luis — Graph

°F

São Luis Temperature Yesterday

Maximum temperature yesterday: 90 °F (at 11:00 am)
Minimum temperature yesterday: 79 °F (at 1:00 am)
Average temperature yesterday: 83 °F

High & Low Weather Summary for the Past Weeks

 TemperatureHumidityPressure
High93 °F (Oct 12, 12:00 pm)100% (Oct 7, 4:00 am)29.95 "Hg (Oct 7, 4:00 am)
Low72 °F (Oct 7, 4:00 am)46% (Oct 10, 1:00 pm)29.77 "Hg (Oct 10, 2:00 pm)
Average82 °F75%29.86 "Hg
* Reported Oct 5 11:00 pm — Oct 20 11:00 pm, São Luis. Weather by CustomWeather, © 2019

Note: Actual official high and low records may vary slightly from our data, if they occured in-between our weather recording intervals... More about our weather records

Advertising

São Luis Weather History for the Previous 24 Hours

Scroll right to see more
 ConditionsComfort  
Time TempWeatherWind HumidityBarometerVisibility
11:00 pm
Sun, Oct 20
79 °FClear.6 mph89%29.86 "Hg10 mi
10:00 pm79 °FClear.8 mph89%29.86 "Hg10 mi
9:00 pm79 °FClear.10 mph89%29.86 "Hg10 mi
8:00 pm79 °FClear.9 mph89%29.83 "Hg10 mi
7:00 pm81 °FClear.13 mph84%29.83 "Hg10 mi
6:00 pm82 °FClear.14 mph74%29.80 "Hg10 mi
5:00 pm84 °FSunny.16 mph70%29.80 "Hg10 mi
4:00 pm86 °FPassing clouds.16 mph66%29.80 "HgN/A
3:00 pm88 °FPassing clouds.15 mph62%29.80 "HgN/A
2:00 pm86 °FScattered clouds.15 mph66%29.83 "HgN/A
1:00 pm88 °FPartly sunny.12 mph62%29.86 "HgN/A
12:00 pm90 °FPartly sunny.14 mph59%29.86 "HgN/A
11:00 am90 °FPartly sunny.15 mph59%29.89 "HgN/A
10:00 am88 °FPartly sunny.14 mph66%29.92 "HgN/A
9:00 am86 °FPartly sunny.14 mph70%29.89 "HgN/A
8:00 am84 °FScattered clouds.13 mph70%29.92 "HgN/A
7:00 am81 °FPassing clouds.10 mph84%29.86 "HgN/A
6:00 am79 °FSunny.7 mph89%29.86 "Hg10 mi
5:00 am79 °FClear.9 mph89%29.83 "Hg10 mi
4:00 am79 °FClear.7 mph89%29.83 "Hg10 mi
3:00 am81 °FClear.14 mph84%29.86 "Hg10 mi
2:00 am79 °FClear.12 mph89%29.83 "Hg10 mi
1:00 am79 °FClear.12 mph89%29.83 "Hg10 mi
12:00 am81 °FClear.12 mph84%29.86 "Hg10 mi
Weather by CustomWeather, © 2019

See weather overview